[[{"header":{"parameterUnit":"m.s-1","parameterCategory":1,"la1":30.2992,"la2":30.254,"lo1":-89.0895,"lo2":-89.0443,"dy":0.0025,"dx":0.0025,"nx":19,"ny":19,"refTime":"2026-03-31T21:00:00:Z","depth":0,"parameterNumber":2,"parameterNumberName":"U-component_of_WINDS"},"data":[0,0,0,-4.1415,-4.1417,-4.1527,-4.1528,-4.1669,-4.167,0,0,0,0,0,0,0,0,0,0,0,-4.1383,-4.1384,-4.1415,-4.1417,-4.1527,-4.1528,-4.1669,-4.1671,0,0,0,0,0,0,0,0,0,0,0,-4.1382,-4.1383,-4.1385,-4.1418,-4.1527,-4.1528,-4.1669,-4.1585,0,0,0,0,0,0,0,0,0,0,-4.1478,-4.1449,-4.1383,-4.1385,-4.1418,-4.1527,-4.1528,-4.1581,-4.159,-4.162,0,-4.1646,0,-4.1661,-4.168,-4.1681,0,0,0,-4.1417,-4.1442,-4.1471,-4.1385,-4.1419,-4.1527,-4.1477,-4.1586,-4.1597,-4.1632,-4.1648,-4.1653,-4.1663,-4.1681,-4.1682,-4.1854,-4.1855,0,0,-4.141,-4.1403,-4.1464,-4.1478,-4.1461,-4.1474,-4.1481,-4.1593,-4.161,-4.1649,-4.1657,-4.1665,-4.1682,-4.1683,-4.1854,-4.1855,0,0,0,-4.1394,-4.1398,-4.1425,-4.1472,-4.1492,-4.1477,-4.1485,-4.1605,-4.1614,-4.1658,-4.1667,-4.1683,-4.1685,-4.1853,-4.1854,-4.1887,0,0,0,-4.139,-4.1388,-4.1422,-4.1419,-4.149,-4.155,-4.1495,-4.1606,-4.1619,-4.1666,-4.1683,-4.1686,-4.1852,-4.1853,-4.1884,-4.1902,0,0,0,-4.1375,-4.1387,-4.1403,-4.1418,-4.1465,-4.1548,-4.1564,-4.1609,-4.1625,-4.1681,-4.1686,-4.1851,-4.1853,-4.1881,-4.1898,-4.1945,0,0,0,-4.1357,-4.143,-4.1403,-4.1489,-4.1464,-4.1568,-4.1563,-4.1641,-4.1693,-4.1684,-4.1852,-4.1854,-4.188,-4.1896,-4.1942,-4.198,-4.1997,0,0,-4.1445,-4.144,-4.1492,-4.1471,-4.1578,-4.1552,-4.1664,-4.1719,-4.1732,-4.1813,-4.1817,-4.1885,-4.1898,-4.1944,-4.2093,-4.2106,0,0,0,-4.1516,-4.1553,-4.1583,-4.1633,-4.1678,-4.1717,-4.1757,-4.1777,-4.1847,-4.1772,-4.1916,-4.1924,-4.1951,-4.197,-4.198,-4.2004,-4.1863,-4.1863,-4.1862,-4.1626,-4.164,-4.1725,-4.1752,-4.1801,-4.1842,-4.1883,-4.1917,-4.1916,-4.195,-4.1973,-4.2062,-4.2084,-4.2092,-4.2116,-4.1997,-4.1997,-4.1997,-4.1997,-4.1754,-4.1807,-4.1806,-4.1888,-4.1902,-4.1971,-4.2014,-4.2011,-4.2077,-4.2045,-4.207,-4.2032,-4.2105,-4.2127,-4.2,-4.1999,-4.1999,-4.1999,-4.1999,-4.1825,-4.1853,-4.1878,-4.1953,-4.2009,-4.2035,-4.2099,-4.211,-4.2121,-4.2146,-4.2171,-4.217,-4.2169,-4.2158,-4.2158,-4.2158,-4.2158,-4.2159,-4.2159,-4.1888,-4.1916,-4.1968,-4.2024,-4.2058,-4.2105,-4.2149,-4.2183,-4.2223,-4.2226,-4.2226,-4.2221,-4.2111,-4.2082,-4.2164,-4.2163,-4.2162,-4.2162,-4.2161,-4.2007,-4.1982,-4.2063,-4.2098,-4.2165,-4.222,-4.2235,-4.2304,-4.2334,-4.2365,-4.2356,-4.2274,-4.2269,-4.2261,-4.2236,-4.2354,-4.2354,-4.2354,-4.2354,-4.2065,-4.2065,-4.2151,-4.2205,-4.226,-4.2283,-4.2374,-4.241,-4.2443,-4.2463,-4.2449,-4.2418,-4.2409,-4.241,-4.2399,-4.2376,-4.2526,-4.2526,-4.2526,-4.2138,-4.2145,-4.2219,-4.2253,-4.2307,-4.2353,-4.2439,-4.2501,-4.2534,-4.2533,-4.2478,-4.2471,-4.2422,-4.2406,-4.2399,-4.2381,-4.2339,0,0]},{"header":{"parameterUnit":"m.s-1","parameterCategory":1,"la1":30.2992,"la2":30.254,"lo1":-89.0895,"lo2":-89.0443,"dy":0.0025,"dx":0.0025,"nx":19,"ny":19,"refTime":"2026-03-31T21:00:00:Z","depth":0,"parameterNumber":3,"parameterNumberName":"V-component_of_WINDS"},"data":[0,0,0,2.7049,2.7048,2.7041,2.7041,2.7021,2.7021,0,0,0,0,0,0,0,0,0,0,0,2.7046,2.7046,2.7049,2.7048,2.7041,2.7041,2.7021,2.7021,0,0,0,0,0,0,0,0,0,0,0,2.7046,2.7046,2.7045,2.7048,2.7041,2.7041,2.7021,2.703,0,0,0,0,0,0,0,0,0,0,2.7038,2.7032,2.7046,2.7045,2.7048,2.7041,2.7041,2.703,2.7029,2.702,0,2.7013,0,2.7017,2.7019,2.7019,0,0,0,2.7051,2.7033,2.7036,2.7045,2.7048,2.7041,2.7045,2.703,2.7029,2.7019,2.7013,2.7012,2.7016,2.7019,2.7019,2.6965,2.6964,0,0,2.7051,2.7041,2.7037,2.7035,2.7038,2.7045,2.7045,2.7029,2.7021,2.7013,2.7012,2.7016,2.7019,2.7018,2.6965,2.6965,0,0,0,2.7051,2.7041,2.7045,2.7035,2.7035,2.7045,2.7045,2.7022,2.7024,2.7012,2.7016,2.7018,2.7018,2.6966,2.6965,2.6939,0,0,0,2.7051,2.7041,2.7045,2.7038,2.7035,2.7029,2.7037,2.7025,2.7024,2.7016,2.7018,2.7018,2.6966,2.6965,2.694,2.6927,0,0,0,2.7048,2.7041,2.7039,2.7038,2.7035,2.7029,2.7031,2.7025,2.7026,2.7019,2.7018,2.6966,2.6965,2.6942,2.6929,2.6911,0,0,0,2.7041,2.7012,2.7038,2.7008,2.7035,2.7014,2.7031,2.7014,2.7005,2.7018,2.6966,2.6965,2.6942,2.6931,2.6913,2.6895,2.6886,0,0,2.6999,2.7006,2.699,2.7013,2.6985,2.7016,2.6983,2.6982,2.6989,2.6972,2.6971,2.694,2.6929,2.6912,2.6842,2.6835,0,0,0,2.6973,2.6961,2.6956,2.6948,2.695,2.695,2.6956,2.6957,2.6944,2.6979,2.6928,2.6923,2.6912,2.6904,2.6898,2.6891,2.6961,2.6961,2.6961,2.6897,2.6911,2.6885,2.6899,2.6892,2.6901,2.6896,2.6897,2.691,2.6898,2.6893,2.6849,2.6839,2.6835,2.6827,2.6884,2.6884,2.6884,2.6884,2.6837,2.6823,2.6846,2.6828,2.6843,2.6827,2.6836,2.6846,2.6833,2.6854,2.6845,2.6866,2.6827,2.6821,2.6882,2.6883,2.6883,2.6883,2.6883,2.6789,2.6785,2.6789,2.6782,2.6775,2.679,2.6778,2.6791,2.6802,2.6794,2.6791,2.6792,2.6794,2.6792,2.6792,2.6792,2.6792,2.6792,2.6792,2.6738,2.6743,2.6733,2.6735,2.6734,2.6734,2.6745,2.6744,2.6745,2.6755,2.6755,2.677,2.6822,2.6834,2.6789,2.679,2.679,2.679,2.6791,2.6672,2.669,2.6674,2.6674,2.6679,2.6672,2.669,2.6687,2.6687,2.6681,2.6699,2.6735,2.6743,2.6748,2.6758,2.6696,2.6696,2.6696,2.6696,2.6631,2.6638,2.6627,2.6626,2.6625,2.6642,2.6623,2.6632,2.6644,2.6645,2.6656,2.6672,2.6676,2.6681,2.6687,2.6697,2.6621,2.6621,2.6621,2.6592,2.66,2.6582,2.6598,2.6603,2.6608,2.6592,2.6588,2.6604,2.6618,2.6647,2.665,2.6675,2.6682,2.6695,2.6704,2.6723,0,0]}]]